OE3PDB-3 Weather Reports


time (UTC)temp
C
wind
direction
speed
KPH
gust
KPH
rain 1hr
cm
rain 24hr
cm
rain mn
cm
humidity
%
barometer
mb
20260505203043 15 247 0.0 0.0 0.00 0.00 0.00 60 1004.9
20260505202043 15 247 0.0 0.0 0.00 0.00 0.00 59 1004.8
20260505201043 15 247 0.0 0.0 0.00 0.00 0.00 59 1004.6
20260505200043 15 270 0.0 0.0 0.00 0.00 0.00 58 1004.4
20260505195043 16 270 0.0 0.0 0.00 0.00 0.00 57 1004.4
20260505194043 16 270 0.0 0.0 0.00 0.00 0.00 55 1004.2
20260505193044 16 270 0.0 0.0 0.00 0.00 0.00 55 1004.2
20260505192043 16 270 0.0 0.0 0.00 0.00 0.00 54 1004.1
20260505191043 17 247 0.0 0.0 0.00 0.00 0.00 53 1004.2
20260505190043 17 247 0.0 0.0 0.00 0.00 0.00 52 1004.1
20260505185043 17 247 0.0 0.0 0.00 0.00 0.00 51 1004.0
20260505184043 17 270 0.0 0.0 0.00 0.00 0.00 50 1004.0
20260505183043 18 270 0.0 0.0 0.00 0.00 0.00 49 1003.9
20260505182043 18 270 0.0 0.0 0.00 0.00 0.00 48 1003.9
20260505181043 18 247 0.0 0.0 0.00 0.00 0.00 48 1004.0
20260505180043 19 270 0.0 0.0 0.00 0.00 0.00 46 1003.9
20260505175044 20 247 0.0 0.0 0.00 0.00 0.00 46 1003.8
20260505174044 20 247 0.0 0.0 0.00 0.00 0.00 45 1003.8
20260505173044 20 270 0.0 0.0 0.00 0.00 0.00 44 1003.8
20260505172044 21 270 0.0 0.0 0.00 0.00 0.00 44 1003.7
20260505171044 21 270 0.0 0.0 0.00 0.00 0.00 43 1003.9
20260505170044 21 270 0.0 0.0 0.00 0.00 0.00 42 1003.9
20260505165044 21 225 0.0 0.0 0.00 0.00 0.00 42 1004.0
20260505164044 21 270 0.0 0.0 0.00 0.00 0.00 42 1004.1
20260505163044 22 270 0.0 0.0 0.00 0.00 0.00 41 1004.2
20260505162044 22 270 0.0 0.0 0.00 0.00 0.00 40 1004.4
20260505161044 22 270 0.0 0.0 0.00 0.00 0.00 39 1004.4
20260505153044 23 225 0.0 0.0 0.00 0.00 0.00 35 1004.3
20260505152044 24 202 0.0 0.0 0.00 0.00 0.00 34 1004.5
20260505151044 25 270 0.0 0.0 0.00 0.00 0.00 33 1004.4
20260505124044 26 270 0.0 0.0 0.00 0.00 0.00 28 1005.7
20260505123044 26 247 0.0 0.0 0.00 0.00 0.00 28 1005.7
20260505122044 26 247 0.0 0.0 0.00 0.00 0.00 29 1005.8
20260505121044 25 270 0.0 0.0 0.00 0.00 0.00 30 1006.0
20260505120044 25 270 0.0 0.0 0.00 0.00 0.00 32 1006.2
20260505115044 24 247 0.0 0.0 0.00 0.00 0.00 35 1006.4
20260505114044 23 270 0.0 0.0 0.00 0.00 0.00 37 1006.7
20260505113044 23 270 0.0 0.0 0.00 0.00 0.00 41 1006.9
20260505112044 22 247 0.0 0.0 0.00 0.00 0.00 41 1006.9
20260505111044 22 270 0.0 0.0 0.00 0.00 0.00 43 1007.0
20260505101044 21 270 0.0 0.0 0.00 0.00 0.00 44 1008.0
20260505100044 21 247 0.0 0.0 0.00 0.00 0.00 44 1008.1
20260505095044 21 270 0.0 0.0 0.00 0.00 0.00 44 1008.2
20260505094044 21 270 0.0 0.0 0.00 0.00 0.00 44 1008.3
20260505093045 21 270 0.0 0.0 0.00 0.00 0.00 43 1008.5
20260505092045 21 270 0.0 0.0 0.00 0.00 0.00 42 1008.5
20260505091045 22 247 0.0 0.0 0.00 0.00 0.00 42 1008.6
20260505090045 22 247 0.0 0.0 0.00 0.00 0.00 42 1008.6
20260505085045 22 270 0.0 0.0 0.00 0.00 0.00 42 1008.7
20260505084045 22 270 0.0 0.0 0.00 0.00 0.00 42 1008.6
20260505083045 22 247 0.0 0.0 0.00 0.00 0.00 41 1008.7
20260505082045 23 247 0.0 0.0 0.00 0.00 0.00 42 1008.8
20260505081045 23 247 0.0 0.0 0.00 0.00 0.00 43 1008.8
20260505080045 22 270 0.0 0.0 0.00 0.00 0.00 42 1008.8
20260505075045 22 247 0.0 0.0 0.00 0.00 0.00 42 1008.8
20260505074045 22 225 0.0 0.0 0.00 0.00 0.00 42 1008.9
20260505073045 22 247 0.0 0.0 0.00 0.00 0.00 45 1008.9
20260505072045 22 247 0.0 0.0 0.00 0.00 0.00 46 1008.9
20260505071045 21 247 0.0 0.0 0.00 0.00 0.00 51 1008.9
20260505070045 19 247 0.0 0.0 0.00 0.00 0.00 57 1008.9
20260505065045 15 247 0.0 0.0 0.00 0.00 0.00 65 1008.9
20260505064045 15 270 0.0 0.0 0.00 0.00 0.00 63 1009.0
20260505063045 15 270 0.0 0.0 0.00 0.00 0.00 64 1009.0
20260505062045 14 270 0.0 0.0 0.00 0.00 0.00 64 1008.9
20260505061045 14 270 0.0 0.0 0.00 0.00 0.00 63 1009.0
20260505060045 15 247 0.0 0.0 0.00 0.00 0.00 63 1008.9
20260505055045 14 247 0.0 0.0 0.00 0.00 0.00 64 1008.9
20260505054045 13 247 0.0 0.0 0.00 0.00 0.00 64 1008.9
20260505053045 13 247 0.0 0.0 0.00 0.00 0.00 64 1008.9
20260505052045 13 247 0.0 0.0 0.00 0.00 0.00 65 1008.8
20260505051045 12 247 0.0 0.0 0.00 0.00 0.00 68 1008.9
20260505041045 10 247 0.0 0.0 0.00 0.00 0.00 70 1008.6
20260505040045 10 247 0.0 0.0 0.00 0.00 0.00 70 1008.7
20260505035045 10 247 0.0 0.0 0.00 0.00 0.00 69 1008.6
20260505034045 10 247 0.0 0.0 0.00 0.00 0.00 68 1008.7
20260505033045 11 247 0.0 0.0 0.00 0.00 0.00 67 1008.7
20260505032045 11 247 0.0 0.0 0.00 0.00 0.00 67 1008.7
20260505031045 11 247 0.0 0.0 0.00 0.00 0.00 67 1008.8
20260505030045 11 247 0.0 0.0 0.00 0.00 0.00 67 1008.9
20260505025045 11 247 0.0 0.0 0.00 0.00 0.00 67 1008.9
20260505024045 11 247 0.0 0.0 0.00 0.00 0.00 67 1008.9
20260505023045 11 247 0.0 0.0 0.00 0.00 0.00 66 1009.0
20260505022045 11 247 0.0 0.0 0.00 0.00 0.00 66 1009.0
20260505021045 12 247 0.0 0.0 0.00 0.00 0.00 64 1009.2
20260505020045 12 247 0.0 0.0 0.00 0.00 0.00 63 1009.2
20260505015045 12 247 0.0 0.0 0.00 0.00 0.00 63 1009.3
20260505014045 12 247 0.0 0.0 0.00 0.00 0.00 63 1009.3
20260505013046 12 247 0.0 0.0 0.00 0.00 0.00 61 1009.2
20260505012045 12 247 0.0 0.0 0.00 0.00 0.00 61 1009.4
20260505011045 13 247 0.0 0.0 0.00 0.00 0.00 61 1009.3
20260505010046 13 247 0.0 0.0 0.00 0.00 0.00 62 1009.4
20260505005046 13 247 0.0 0.0 0.00 0.00 0.00 62 1009.4
20260505004046 13 247 0.0 0.0 0.00 0.00 0.00 61 1009.4
20260505003046 13 247 0.0 0.0 0.00 0.00 0.00 61 1009.5
20260505002046 13 270 0.0 0.0 0.00 0.00 0.00 60 1009.6
20260505001046 13 270 0.0 0.0 0.00 0.00 0.00 59 1009.6
20260504235044 13 247 0.0 0.0 0.00 0.00 0.00 58 1009.7
20260504234044 14 270 0.0 0.0 0.00 0.00 0.00 58 1009.8
20260504233044 14 270 0.0 0.0 0.00 0.00 0.00 57 1009.8
20260504232044 14 270 0.0 0.0 0.00 0.00 0.00 57 1009.8
20260504231044 15 247 0.0 0.0 0.00 0.00 0.00 56 1010.0
20260504230044 15 270 0.0 0.0 0.00 0.00 0.00 56 1009.9
20260504225044 15 247 0.0 0.0 0.00 0.00 0.00 55 1010.0
20260504224044 15 270 0.0 0.0 0.00 0.00 0.00 54 1010.0
20260504223044 15 247 0.0 0.0 0.00 0.00 0.00 54 1010.1
20260504222044 15 270 0.0 0.0 0.00 0.00 0.00 53 1010.1
20260504221044 15 225 0.0 0.0 0.00 0.00 0.00 53 1010.2
20260504220044 16 247 0.0 0.0 0.00 0.00 0.00 52 1010.4
20260504215044 16 270 0.0 0.0 0.00 0.00 0.00 51 1010.4
20260504214044 16 270 0.0 0.0 0.00 0.00 0.00 50 1010.4
20260504213044 16 270 0.0 0.0 0.00 0.00 0.00 50 1010.4
20260504212044 16 270 0.0 0.0 0.00 0.00 0.00 50 1010.3
20260504211044 17 270 0.0 0.0 0.00 0.00 0.00 48 1010.4
20260504210045 17 270 0.0 0.0 0.00 0.00 0.00 48 1010.4
20260504205045 17 270 0.0 0.0 0.00 0.00 0.00 47 1010.4
20260504204045 17 247 0.0 0.0 0.00 0.00 0.00 46 1010.5